TimeEST,TemperatureF,Dew PointF,Humidity,Sea Level PressureIn,VisibilityMPH,Wind Direction,Wind SpeedMPH,Gust SpeedMPH,PrecipitationIn,Events,Conditions,WindDirDegrees,DateUTC
12:17 AM,8.6,-0.4,67,30.25,10.0,West,9.2,-,N/A,,Clear,260,2013-01-15 05:17:00
12:37 AM,8.4,-0.4,67,30.25,10.0,West,8.1,-,N/A,,Clear,270,2013-01-15 05:37:00
12:56 AM,7.7,-0.4,70,30.25,10.0,West,8.1,-,N/A,,Clear,270,2013-01-15 05:56:00
1:17 AM,7.5,-0.4,70,30.25,10.0,West,5.8,-,N/A,,Clear,270,2013-01-15 06:17:00
1:37 AM,7.2,-0.4,71,30.25,10.0,West,4.6,-,N/A,,Clear,260,2013-01-15 06:37:00
1:57 AM,6.8,-0.4,72,30.25,10.0,West,5.8,-,N/A,,Clear,270,2013-01-15 06:57:00
2:17 AM,6.8,-0.0,74,30.25,10.0,Calm,Calm,-,N/A,,Clear,0,2013-01-15 07:17:00
2:37 AM,6.4,-0.4,74,30.26,10.0,West,3.5,-,N/A,,Clear,270,2013-01-15 07:37:00
2:57 AM,5.9,-0.4,75,30.26,10.0,WSW,3.5,-,N/A,,Clear,250,2013-01-15 07:57:00
3:17 AM,5.7,-0.4,76,30.26,10.0,WSW,5.8,-,N/A,,Clear,240,2013-01-15 08:17:00
3:36 AM,5.4,-0.4,77,30.26,10.0,West,3.5,-,N/A,,Scattered Clouds,260,2013-01-15 08:36:00
3:57 AM,5.5,-0.4,77,30.26,10.0,WSW,4.6,-,N/A,,Mostly Cloudy,250,2013-01-15 08:57:00
4:17 AM,5.9,0.1,77,30.26,10.0,West,5.8,-,N/A,,Overcast,260,2013-01-15 09:17:00
4:36 AM,6.3,0.5,77,30.26,10.0,West,6.9,-,N/A,,Overcast,260,2013-01-15 09:36:00
4:57 AM,6.8,0.7,76,30.26,10.0,WSW,9.2,-,N/A,,Overcast,250,2013-01-15 09:57:00
5:17 AM,7.2,0.9,75,30.25,10.0,WSW,8.1,-,N/A,,Overcast,250,2013-01-15 10:17:00
5:37 AM,7.3,1.0,75,30.25,10.0,WSW,9.2,-,N/A,,Overcast,240,2013-01-15 10:37:00
5:57 AM,7.3,1.0,75,30.24,10.0,WSW,5.8,-,N/A,,Overcast,250,2013-01-15 10:57:00
6:50 AM,5.0,-0.4,78,30.23,10.0,SW,6.9,-,N/A,,Clear,230,2013-01-15 11:50:00
7:50 AM,5.0,-0.4,78,30.19,10.0,South,8.1,-,N/A,,Scattered Clouds,190,2013-01-15 12:50:00
8:55 AM,5.0,-0.4,78,30.20,10.0,SSW,11.5,-,N/A,,Clear,200,2013-01-15 13:55:00
9:50 AM,8.6,-0.4,67,30.19,10.0,SSW,3.5,-,N/A,,Clear,200,2013-01-15 14:50:00
10:50 AM,14.0,5.0,67,30.16,10.0,SSW,18.4,-,N/A,,Clear,210,2013-01-15 15:50:00
11:50 AM,15.8,8.6,73,30.14,10.0,SSW,17.3,-,N/A,,Clear,210,2013-01-15 16:50:00
12:50 PM,19.4,10.4,68,30.10,10.0,SSW,18.4,-,N/A,,Clear,200,2013-01-15 17:50:00
1:48 PM,21.2,10.4,63,30.08,10.0,SSW,16.1,25.3,N/A,,Clear,210,2013-01-15 18:48:00
2:50 PM,24.8,6.8,46,30.06,10.0,SW,16.1,26.5,N/A,,Clear,230,2013-01-15 19:50:00
3:50 PM,26.6,5.0,40,30.05,10.0,SW,17.3,23.0,N/A,,Clear,230,2013-01-15 20:50:00
4:50 PM,26.6,6.8,43,30.05,10.0,SW,17.3,-,N/A,,Clear,230,2013-01-15 21:50:00
5:50 PM,24.8,8.6,50,30.04,10.0,SSW,11.5,-,N/A,,Clear,210,2013-01-15 22:50:00
6:50 PM,21.2,8.6,58,30.01,10.0,South,13.8,-,N/A,,Clear,190,2013-01-15 23:50:00
7:55 PM,21.2,12.2,68,30.00,10.0,South,16.1,-,N/A,,Clear,190,2013-01-16 00:55:00
8:50 PM,19.4,12.2,74,29.99,10.0,South,17.3,-,N/A,,Clear,190,2013-01-16 01:50:00
9:50 PM,19.4,12.2,74,29.95,10.0,South,17.3,-,N/A,,Clear,190,2013-01-16 02:50:00
10:17 PM,18.3,11.8,76,29.93,10.0,South,13.8,-,N/A,,Clear,190,2013-01-16 03:17:00
10:37 PM,18.0,11.7,76,29.91,10.0,SSW,12.7,-,N/A,,Clear,200,2013-01-16 03:37:00
10:57 PM,17.2,11.7,79,29.90,10.0,SSW,12.7,-,N/A,,Clear,200,2013-01-16 03:57:00
11:17 PM,17.2,11.7,79,29.89,10.0,SSW,12.7,-,N/A,,Clear,200,2013-01-16 04:17:00
11:37 PM,16.7,11.3,79,29.88,10.0,SSW,11.5,-,N/A,,Clear,200,2013-01-16 04:37:00
11:56 PM,16.7,11.5,80,29.87,10.0,South,11.5,-,N/A,,Clear,190,2013-01-16 04:56:00